Terminal Aerodrome Forecast
Issued by NWS Charleston, WV

Current Version | Previous Version | Graphics & Text | Print | Product List | Glossary On
Versions: 1 2 3 4 5 6 7 8 9 10 11 12 13 14 15 16 17 18 19 20 21 22 23 24 25 26 27 28
000
FTUS41 KRLX 131700
TAFEKN
TAF
KEKN 131729Z 1318/1418 21010KT P6SM SCT250
     FM132000 20011G22KT P6SM SCT250
     FM140300 20008G17KT P6SM SCT250
     FM140900 18008KT P6SM BKN150=

USA.gov is the U.S. government's official web portal to all federal, state and local government web resources and services.